Regional Weather Roundup
Issued by NWS Sterling, VA

Home | Current Version | Previous Version | Text Only | Print | Product List | Glossary Off
Versions: 1 2 3 4 5 6 7 8 9 10 11 12 13 14 15 16 17 18 19 20 21 22 23 24 25 26 27 28

000
ASUS41 KLWX 252011
RWRLWX

REGIONAL WEATHER ROUNDUP
NATIONAL WEATHER SERVICE BALTIMORE MD/WASHINGTON DC
400 PM EDT SUN JUN 25 2017

Note: "FAIR" indicates few or no clouds below 12,000 feet
with no significant weather and/or obstructions to visibility.
 TC=TEMPERATURE CELSIUS

 * =Non NWS site. Station does not report precipitation (e.g. rain,
    snow, etc.), thunder, or fog.

DCZ001-MDZ009-015-VAZ040>042-051-053>054-252100-
WASHINGTON METRO

CITY           SKY/WX    TMP DP  RH WIND       PRES   REMARKS
WASHINGTON NAT PTSUNNY   87  53  31 W5        29.98F
DULLES         PTSUNNY   85  52  32 NW12      30.00F
ANDREWS AFB    MOSUNNY   85  53  33 NW12      29.97F
FT BELVOIR     MOSUNNY   87  52  30 NW10      29.97F
QUANTICO       MOSUNNY   87  52  29 NW13      29.98F
COLLEGE PARK*  MOSUNNY   84  53  33 NW7       29.97F
LEESBURG*      MOSUNNY  N/A N/A N/A NW12      30.01S
MANASSAS*      PTSUNNY   84  55  36 NW9G17    29.99F
GAITHERSBURG*  PTSUNNY   81  53  37 NW13      30.01F

$$

MDZ006>007-011-014-252100-
BALTIMORE METRO

CITY           SKY/WX    TMP DP  RH WIND       PRES   REMARKS
BWI AIRPORT    MOSUNNY   85  50  29 W13       29.97F
MD SCIENCE CTR   N/A     87  48  25 MISG      29.96F
MARTIN STATE   MOSUNNY   86  54  32 W13G20    29.97F
ANNAPOLIS      MOSUNNY   82  59  45 NW8       29.96F
FORT MEADE*    MOSUNNY   82  55  39 W10       30.00F

$$

MDZ012-015-019>023-252100-
MARYLAND EASTERN SHORE

CITY           SKY/WX    TMP DP  RH WIND       PRES   REMARKS
OCEAN CITY     MOSUNNY   75  64  68 SE8       29.98F
SALISBURY      SUNNY     86  57  37 SW7       29.97F
BAY BRIDGE AP* MOSUNNY   84  59  42 W8        29.97F
CAMBRIDGE*     MOSUNNY   84  57  39 W8        29.98S
EASTON*        MOSUNNY   84  57  39 NW9       30.01F

$$

MDZ017>025-252100-
SOUTHERN MARYLAND

CITY           SKY/WX    TMP DP  RH WIND       PRES   REMARKS
PATUXENT RIVER PTSUNNY   81  62  52 SE8       29.98F
ST INIGOES     PTSUNNY   85  60  42 SW8       29.98F
LEONARDTOWN*   PTSUNNY   82  59  44 W7        30.00F

$$

MDZ003>005-252100-
NORTH CENTRAL MARYLAND

CITY           SKY/WX    TMP DP  RH WIND       PRES   REMARKS
FREDERICK*     MOSUNNY   82  41  23 W13G23    30.02F
HAGERSTOWN APT PTSUNNY   82  48  30 W12G23    30.00F
WESTMINSTER*   SUNNY     84  54  34 W10G18    30.00F

$$

MDZ501>502-252100-
WESTERN MARYLAND

CITY           SKY/WX    TMP DP  RH WIND       PRES   REMARKS
OAKLAND*       NOT AVBL
CUMBERLAND*    SUNNY     79  45  29 W12G20    30.08S

$$

VAZ025>031-252100-
SHENANDOAH VALLEY

CITY           SKY/WX    TMP DP  RH WIND       PRES   REMARKS
WINCHESTER*    MOSUNNY   79  45  29 NW17      30.03S
FRONT ROYAL*   MOSUNNY   81  46  30 W8G18     30.02S
LURAY*         MOSUNNY   81  50  34 NW13      30.04S
NEW MARKET*    SUNNY     80  41  25 N7G17     30.03S
STAUNTON*      PTSUNNY   80  47  31 W6G17     30.06F
WAYNESBORO*    MOSUNNY   79  52  39 W9        30.06F

$$

WVZ021-048>050-054>055-252100-
EASTERN WEST VIRGINIA PANHANDLE

CITY           SKY/WX    TMP DP  RH WIND       PRES   REMARKS
MARTINSBURG    PTSUNNY   82  47  29 W18G24    30.01S
PETERSBURG*    MOSUNNY   80  47  30 W14       30.07S

$$

VAZ036>039-050-252100-
CENTRAL FOOTHILLS

CITY           SKY/WX    TMP DP  RH WIND       PRES   REMARKS
CHARLOTTESVILL MOSUNNY   84  54  35 VRB3      30.01F
CULPEPER*      MOSUNNY   83  54  36 W3        30.01F
ORANGE*        PTSUNNY   82  54  36 W3        30.00F
GORDONSVILLE*  PTSUNNY   84  55  37 W5        30.00F
WARRENTON*     SUNNY     85  46  26 W8        30.00F

$$

VAZ055>057-252100-
NORTH AND CENTRAL PIEDMONT

CITY           SKY/WX    TMP DP  RH WIND       PRES   REMARKS
FREDERICKSBRG* MOSUNNY   84  57  38 W8        29.98F
STAFFORD*      SUNNY     86  52  31 SW5       30.02F

$$

NCZ024-NYZ072-PAZ021-071-VAZ022-071-252100-
OTHER REGIONAL OBSERVATIONS

CITY           SKY/WX    TMP DP  RH WIND       PRES   REMARKS
NEW YORK CITY  CLOUDY    77  60  55 CALM      29.97R
PHILADELPHIA   PTSUNNY   85  54  34 SW12      29.94F
PITTSBURGH     MOSUNNY   74  46  36 W10       30.04S
ROANOKE        PTSUNNY   80  48  32 NW12G21   30.10F
RICHMOND       PTSUNNY   83  59  44 VRB6      30.00F
RALEIGH        MOSUNNY   83  62  49 VRB6      30.06F

$$

ANZ530>537-252100-
MARINE OBSERVATIONS

STATION/POSITION TIME  TEMP    WIND        PRES
                       AIR SEA DIR/SP/G
                 (UTC) (F)     (DEG/KT/KT) (MB)
THOMAS PT LIGHT  2000   80 79  210/  8/  9   N/A
BALT KEY BRIDGE  1942   82     260/ 16/ 18 1014.3F
COVE POINT       1942   80     160/  6/  6 1015.8F
LEWISETTA        1942   82 80   60/  5/  7 1015.4F
SOLOMONS ISLAND  1942   83 79  260/  3/  5   N/A
PINEY POINT      1942          300/  4/  5   N/A

$$





USA.gov is the U.S. government's official web portal to all federal, state and local government web resources and services.